[Date Prev][Date Next][Thread Prev][Thread Next][Date Index][Thread Index]

[jamsat-news:763] jas2info #73



=========================   最新情報   ==============================

        Last updated :Sat.7-Feb.-98 11:30 (JST) #73

====================================================================   
     衛星情報 FOシリーズの軌道要素、テレメトリ、QSOの状況等をま
   とめてみました.

  1)FO−29(ふじ3号)は2月6日 (金)の18:38(JST)
     のパスでは下記のJARLホームページの運用情報のとうりJAアナログモ
     ードで運用されておりました.
         
  ■ 軌道要素1:「jamsatーkeps:659」より
                 SB KEPS @ AMSAT  $ORBS-037.N
                 2Line Orbital Elements 037.AMSAT

  HR AMSAT ORBITAL ELEMENTS FOR AMATEUR SATELLITES IN NASA FORMAT
  FROM WA5QGD FORT WORTH,TX February 6, 1998
  SEND SUBSCRIBE/UNSUBSCRIBE TO listserv@amsat.org ONLY
  BID: ORBS-037.N

  DECODE 2-LINE ELSETS WITH THE FOLLOWING KEY:
  1 AAAAAU 00  0  0 BBBBB.BBBBBBBB  .CCCCCCCC  00000-0  00000-0 0  DDDZ
  2 AAAAA EEE.EEEE FFF.FFFF GGGGGGG HHH.HHHH III.IIII JJ.JJJJJJJJKKKKKZ
  KEY: A-CATALOGNUM B-EPOCHTIME C-DECAY D-ELSETNUM E-INCLINATION F-RAAN
  G-ECCENTRICITY H-ARGPERIGEE I-MNANOM J-MNMOTION K-ORBITNUM Z-CHECKSUM
  TO ALL RADIO AMATEURS BT
 
 FO-29
  1 24278U 96046B   98022.08933720  .00000003  00000-0  40610-4 0 01429
  2 24278 098.5161 038.1933 0351671 338.9721 019.7256 13.52637926070717

 ■ 軌道要素2:「jamsatーkeps:660」より
          SB KEPS @ AMSAT  $ORBS-037.O
                 Orbital Elements  037.OSCAR

    HR AMSAT ORBITAL ELEMENTS FOR OSCAR SATELLITES
    FROM WA5QGD FORT WORTH,TX February 6, 1998
    SEND SUBSCRIBE/UNSUBSCRIBE TO listserv@amsat.org ONLY
    BID: ORBS-037.O
    TO ALL RADIO AMATEURS BT

  Satellite: FO-29
  Catalog number: 24278
  Epoch time:      98022.08933720
  Element set:    0142
  Inclination:      098.5161 deg
  RA of node:       038.1933 deg
  Eccentricity:    0.0351671
  Arg of perigee:   338.9721 deg
  Mean anomaly:     019.7256 deg
  Mean motion:   13.52637926 rev/day
  Decay rate:        3.0e-08 rev/day^2
  Epoch rev:           07071
  Checksum:              311
 -----------------------------------------------------------
  1 )FO−29(ふじ3号)の 2月6日(金)のJAアナログモードで
    運用中の1分毎のビーコン波にのって送信されるCWテレメトリの1部です.

   AS7279C    6FEB98
   JST     18:38 - 18:55
   Freq.  435.804 - .786 MHz    

HI HI AE C7 88 55 00 7E 00 09 00 55 56 42 67 78 60 93 90 BD 89 87 89 8A 85 
HI HI AE C7 88 55 00 7E 00 09 00 55 A5 46 66 7C 60 93 65  4 89 87 89 8A 85 
HI HI AE C7 88 55 09 7E 00 09 00 56 55 4B 57 7D 5F 92    85 89 87 89 8A 85 
HI HI AE C7 88 55 00 7E 00 09 00 5C 48 7E 60 93 90 70 63 B0 89 87 88 8A 85 
HI HI AE C7 88 55 00 7E 00 09 00 69 40 7E 60 93 90    57    89 87 89 8A 85 
HI HI AE C7 88 55 00 7E 00 09 00 75 38 7D 3B 7C 60 93 90 B0 89 89 89 8A 85 

2) CWアナログテレメトリ換算値例	FO−29(ふじ3号)	
	上記テレメトリの最後の一行目を換算
					
	テレメトリ	内   容		換算値	単 位
           3C	磁気センサーZ軸=	27451.0	nT
           3D	磁気センサX軸	=	61274.5	nT
           4A	太陽電池発生電流=	  578.4	mA
           4B	B充放電電流	=	  430.4	mA
           4C	B端子電圧	=	   10.3	V
           4D	B中間端子電圧	=	    7.1	V
           5A	バス電圧	=   	   14.1	V
           5B	JTA送信電力	=	 1045.9	mW
           5C	構体温度1	=	   28.7	℃
           5D	構体温度2	=	   28.7	℃
           6A	構体温度3	=	   28.7	℃
           6B	構体温度4	=	   28.3	℃
           6C	Bセル温度	=	   30.2	℃
           
         *Windows 95 のoffice 97 Excel にて計算. 
 ==========================================================================  
  3)FO−20(ふじ 2号)のCWテレメトリは2月3日(火)の13:49のパスでも
      切れ目の無い連続音になっいましたが,アナログ QSOは通常どうり行われております.
 -------------------------------------------------------------------------- 
 
 ■ 軌道要素1 :出典は「ふじ3号」に同じ.
 
  FO-20
 1 20480U 90013C   98022.19339468 -.00000010  00000-0  57936-4 0 00314
 2 20480 099.0735 307.8515 0539953 241.6286 112.9377 12.83241480372792
 
  ■ 軌道要素2 :出典は「ふじ3号」に同じ. 
  
 Satellite: FO-20
 Catalog number: 20480
 Epoch time:      98022.19339468
 Element set:    0031
 Inclination:      099.0735 deg
 RA of node:       307.8515 deg
 Eccentricity:    0.0539953
 Arg of perigee:   241.6286 deg
 Mean anomaly:     112.9377 deg
 Mean motion:   12.83241480 rev/day
 Decay rate:       -1.0e-07 rev/day^2
 Epoch rev:           37279
 Checksum:              313

 =========================   JARL運用情報   =========================

  *JARL のホームページに運用の予定変更が記載されていましたのでご紹介します.

        ■ ふじ3号/FO−29 ■     
   
   運用予定の変更
 
   アマチュア衛星「ふじ3号」のコンピュータにメモリーエラーが発生しました。
 現在,コンピューターのリセット,プログラムのロード作業を行っていますが,
 アップリンクの回線状態が悪く立ち上げに時間がかかっています。12月19日
 から予定しているデジトーカ運用と1月9日からの1200bpsメールボックス運用を
 中止して,しばらくの間アナログ系運用とします。  
           
        ■ ふじ2号/FO−20 ■
      
            「ふじ2号」 現況                                                                                               
   JAS-1b/FO-20(ふじ2号)の不具合発生について

    JAS-1b(ふじ2号)のCWテレメトリ信号に,1997年10月12日12時
 (JST)の日本上空通過時,3桁の数字が繰り返されるはずが3個の長音の
  繰り返しとなっているという異常が発見されました。この不具合は次の通過時
  からは回復していましたが13日15時20分の通過時に再び観測されました。
  衛星のアナログ系中継モード動作は異常が無く,正常時のテレメトリ内容からは
  衛星の動作に異常は認められません。従って,直ちに衛星のミッションに影響す
  ることは無いと予想されますので,当面はアナログ系中継モードを継続します。
  衛星は既に打ち上げてから7年8ヶ月を経ておりますので,今後は監視を強化す
  る予定です。アマチュア各位のレポートをお待ちします.   
  
  以上  http://www.jarl.or.jp/Japanese/3_Fuji/jr1nvu.htm  より.
                                           
   =============   JAS-2 (ふじ3号)と現在までの情報   ===========  
  A.電話によるふじ3号の運用情報
      社団法人日本アマチュア連盟によるサービス
           TEL .   03− 3942 − 1000
  B.アマチュア無線FAXサービス
      JARLによるふじ3号の軌道情報(オービットカレンダー)
         FAX No.  03− 3233 −0055
  C.WWWブラウザで情報を簡単に見れる人のためにJAS−2
     ふじ3号の衛星としての運用されるまでの名前)の概要、打ち上げ
     までの状況、運用中における状況を説明したホームページを紹介し
     ておきます.
    1)社団法人日本アマチュア無線連盟(JARL)のホームページ

          http://www.jarl.or.jp/Japanese/3_Fuji/jr1nvu.htm
 
    2)宇宙開発事業団(NASDA)ホームページ 
          http://www.nasda.go.jp/
         打上げ衛星 :地球観測プラットフォーム技術衛星(ADEOS) 
                       アマチュア衛星3号(JAS-2)
          http://yyy.tksc.nasda.go.jp/Home/Press/Press-j/jas-2_j.html        

  D.JAMSATによる軌道情報の活用
        JAMSATのホームページまたはjamsat−kepsの軌道要素より
      衛星の軌道情報を得る.
     JAMSATホームページ
               URL    http://www.jamsat.or.jp

       上記ホームページでは各地で行われるアマチュア通信衛星に関する
      ミューティングのお知らせや世界のアマチュア衛星に関する情報が
      満載されています.

========================   ふじ 2号、3号のアナログQSOの状況  ========================

    JA0FKM/1局の上田穂積さんがQSOの状況をレポートされましたので転載しておきます.
  これからも宜しくお願いします.

  ja0fkm/1 です。
  最近、fo20,29のアナログにでています。
  1M/25 00:30U fo-20 でアラスカとQSOできました。
 私は初めて(最近)です。fo-20は非常に安定したdown-linkが返ってきます。
 ビーコンは止まったままです。
  これに引き替えfo-29はqsbが大きく安定していません。 
  たまに、ao-10にもでていますが、、、アクセスするのもびくびくです
  以下はお願い。
  ディジタル系もでていますが、いまいち、おもしろくありません。システムが出来てし
  まえば運用はpcの担当になっています。 やっぱりアナログはテクニックもあり面白く
  感じます。なるべく、fo-29もアナログ運用を増やしていただけるようにお願いします。
  これから、なるべく簡単な設備でQSO出来る工夫をやってみたいと思います。
  これにより衛星ファンが増えるといいですね。
  
                                     98/01/25(日)  上田穂積
                                                   (KFD02034@niftyserve.or.jp)
 =========================================================================
       JAMSATのメンバーのご協力によりJH6MME(高山 秀造)が
    執筆・編集を担当しております.ご指摘の意見、疑問やこのようにしたら
    というアイデアがありましたら小さなことでもかまいませんので気軽に下
    記アドレスまでご連絡ください.jamsat−newsからjas2
    infoへの転載をJH4PHW局坂井さんに担当して頂いております.
                    Eーmail :   jh6mme@jamsat.or.jp : jh4phw@jamsat.or.jp
 ===============================   END  ===============================